ONEWEB-0140, 47286

Orbit data source: Space-Track

ONEWEB-0140, 47286 is a payload satellite owned by One Web (UK) in LEO that was launched on Fri, 18 Dec 2020 UTC via a SOYUZ-2-1B launch vehicle from the Vostochny Cosmodrome (VOSTO). Payload-class satellites include a variety of spacecraft equipped with specific instruments for various scientific and technological missions. These include communications satellites like Starlink; space stations such as the ISS; scientific satellites like the Hubble; Earth observation satellites from companies like Planet Labs, Umbra, and HawkEye 360; GPS; miniature CubeSats for education and research; and military/defense satellites.

Loading next visibility...
Identifier
47286, 2020-100AE
Orbit
LEO
Country
Flag of UKUK
Related business
Manufacturer
One Web
Mission
Operational Commercial Communications
Bus & Motor
ARROW, Unknown motor
Mass
148 kg wet, ~140 kg dry
Launch date (UTC)
2020-12-18 (6 years ago)
Launch vehicle
SOYUZ-2-1B
Launch site
Vostochny Cosmodrome (VOSTO)
Object type
Payload
Rocket body
Debris
Shape & HBR
Trap Box + 2 Pan, 6.7 m
Radar Cross Section
3.464 m², Large (>1 m²)

Expand to show TLE details & history
Last TLE update: 2 days ago

TLE from 2 days ago
0 ONEWEB-0140
1 47286U 20100AE  26171.47653601  .00000337  00000-0  90160-3 0  9991
2 47286  87.8950 349.9880 0001613  88.9004 271.2310 13.12444211265122
Epoch: 2026-06-20T11:26Z
TLE epoch observation values (Epoch: 2026-06-20T11:26:12.711Z)
Latitude
0.00006°
Longitude
-90.25557°
Altitude
1,216.583 km
Speed
7.246 km/s
True Right ascension
23h 19m 57s
True Declination
0° 00' 00"
Sunlit
Object was in daylight at epoch
Visualization orbit readout
Latitude
Unknown
Longitude
Unknown
Altitude
Unknown
Speed
Unknown
Apparent Right ascension
Unknown
Apparent Declination
Unknown
Sunlit
N/A
Visualization observer readout
Local Sidereal Time
22:00:30
Azimuth
Unknown
Elevation
Unknown
Doppler factor
Unknown
Orbital elements
Apogee altitude
1,212.059 km
Perigee altitude
1,209.611 km
Semi-major axis
7,588.972 km
Eccentricity
0.00016
Inclination
87.895°
RAAN
349.988°
Arg. of periapsis
88.9004°
True anomaly
271.21252°
Mean anomaly
271.231°
Eccentric anomaly
271.22176°
Mean motion
3.28298 °/min
Orbital period
109.66 mins
BSTAR
0.0009016
Loading maneuver chart data...
Computing Atmospheric mass density...
Loading historical data...
Loading historical data...
Loading historical data...
Loading historical data...
Loading historical data...
Loading historical data...
Loading historical data...

Documentation

Showing up to 5 results
|